Time,TemperatureF,DewpointF,PressureIn,WindDirection,WindDirectionDegrees,WindSpeedMPH,WindSpeedGustMPH,Humidity,HourlyPrecipIn,Conditions,Clouds,dailyrainin,SoftwareType,DateUTC
2013-10-29 00:01:00,27.0,3.6,0.00,North,353,0.0,0.0,36,0.00,,,0.00,VWS V13.01,2013-10-29 05:01:00,
2013-10-29 00:06:00,26.6,3.8,0.00,North,353,0.0,0.0,37,0.00,,,0.00,VWS V13.01,2013-10-29 05:06:00,
2013-10-29 00:11:00,26.6,3.8,0.00,North,353,0.0,0.0,37,0.00,,,0.00,VWS V13.01,2013-10-29 05:11:00,
2013-10-29 00:16:00,26.4,4.3,0.00,North,353,0.0,0.0,38,0.00,,,0.00,VWS V13.01,2013-10-29 05:16:00,
2013-10-29 00:21:00,26.1,3.9,0.00,North,353,2.2,2.7,38,0.00,,,0.00,VWS V13.01,2013-10-29 05:21:00,
2013-10-29 00:26:00,26.1,3.9,0.00,North,353,0.0,0.0,38,0.00,,,0.00,VWS V13.01,2013-10-29 05:26:00,
2013-10-29 00:31:00,26.1,4.5,0.00,North,353,0.0,0.0,39,0.00,,,0.00,VWS V13.01,2013-10-29 05:31:00,
2013-10-29 00:36:00,25.9,4.3,0.00,North,353,2.2,2.7,39,0.00,,,0.00,VWS V13.01,2013-10-29 05:36:00,
2013-10-29 00:41:00,25.9,4.9,0.00,North,353,0.0,0.0,40,0.00,,,0.00,VWS V13.01,2013-10-29 05:41:00,
2013-10-29 00:46:00,25.7,4.7,0.00,North,353,0.0,0.0,40,0.00,,,0.00,VWS V13.01,2013-10-29 05:46:00,
2013-10-29 00:51:00,25.7,4.7,0.00,North,353,0.0,0.0,40,0.00,,,0.00,VWS V13.01,2013-10-29 05:51:00,
2013-10-29 00:56:00,25.7,4.7,0.00,North,353,0.0,0.0,40,0.00,,,0.00,VWS V13.01,2013-10-29 05:56:00,
2013-10-29 01:01:00,25.7,4.7,0.00,North,353,0.0,0.0,40,0.00,,,0.00,VWS V13.01,2013-10-29 06:01:00,
2013-10-29 01:06:00,25.5,4.6,0.00,North,353,0.0,0.0,40,0.00,,,0.00,VWS V13.01,2013-10-29 06:06:00,
2013-10-29 01:11:00,25.5,4.6,0.00,North,353,0.0,0.0,40,0.00,,,0.00,VWS V13.01,2013-10-29 06:11:00,
2013-10-29 01:16:00,25.3,4.4,0.00,North,353,0.0,0.0,40,0.00,,,0.00,VWS V13.01,2013-10-29 06:16:00,
2013-10-29 01:21:00,25.2,4.8,0.00,North,353,0.0,0.0,41,0.00,,,0.00,VWS V13.01,2013-10-29 06:21:00,
2013-10-29 01:26:00,25.2,4.8,0.00,North,353,2.7,2.7,41,0.00,,,0.00,VWS V13.01,2013-10-29 06:26:00,
2013-10-29 01:31:00,25.2,5.3,0.00,North,350,4.0,4.0,42,0.00,,,0.00,VWS V13.01,2013-10-29 06:31:00,
2013-10-29 01:36:00,25.2,5.3,0.00,North,349,0.0,2.2,42,0.00,,,0.00,VWS V13.01,2013-10-29 06:36:00,
2013-10-29 01:41:00,25.2,5.3,0.00,North,353,0.0,0.0,42,0.00,,,0.00,VWS V13.01,2013-10-29 06:41:00,
2013-10-29 01:46:00,25.0,5.1,0.00,North,353,0.0,0.0,42,0.00,,,0.00,VWS V13.01,2013-10-29 06:46:00,
2013-10-29 01:51:00,25.0,5.1,0.00,North,353,0.0,0.0,42,0.00,,,0.00,VWS V13.01,2013-10-29 06:51:00,
2013-10-29 01:56:00,25.0,5.1,0.00,North,353,0.0,0.0,42,0.00,,,0.00,VWS V13.01,2013-10-29 06:56:00,
2013-10-29 02:01:00,25.0,5.1,0.00,North,353,0.0,0.0,42,0.00,,,0.00,VWS V13.01,2013-10-29 07:01:00,
2013-10-29 02:06:00,24.8,5.0,0.00,North,353,0.0,0.0,42,0.00,,,0.00,VWS V13.01,2013-10-29 07:06:00,
2013-10-29 02:11:00,24.8,5.0,0.00,North,353,0.0,0.0,42,0.00,,,0.00,VWS V13.01,2013-10-29 07:11:00,
2013-10-29 02:16:00,24.8,5.0,0.00,North,353,0.0,0.0,42,0.00,,,0.00,VWS V13.01,2013-10-29 07:16:00,
2013-10-29 02:21:00,24.8,5.0,0.00,North,353,0.0,0.0,42,0.00,,,0.00,VWS V13.01,2013-10-29 07:21:00,
2013-10-29 02:26:00,25.0,5.1,0.00,North,353,0.0,0.0,42,0.00,,,0.00,VWS V13.01,2013-10-29 07:26:00,
2013-10-29 02:31:00,25.2,5.3,0.00,North,353,0.0,0.0,42,0.00,,,0.00,VWS V13.01,2013-10-29 07:31:00,
2013-10-29 02:36:00,25.2,5.3,0.00,North,353,0.0,0.0,42,0.00,,,0.00,VWS V13.01,2013-10-29 07:36:00,
2013-10-29 02:41:00,25.2,5.3,0.00,North,353,0.0,2.2,42,0.00,,,0.00,VWS V13.01,2013-10-29 07:41:00,
2013-10-29 02:46:00,25.3,5.5,0.00,North,353,0.0,0.0,42,0.00,,,0.00,VWS V13.01,2013-10-29 07:46:00,
2013-10-29 02:51:00,25.3,5.5,0.00,North,353,2.2,2.2,42,0.00,,,0.00,VWS V13.01,2013-10-29 07:51:00,
2013-10-29 02:56:00,25.2,5.8,0.00,North,353,0.0,0.0,43,0.00,,,0.00,VWS V13.01,2013-10-29 07:56:00,
2013-10-29 03:01:00,25.2,5.8,0.00,North,353,0.0,0.0,43,0.00,,,0.00,VWS V13.01,2013-10-29 08:01:00,
2013-10-29 03:06:00,25.2,5.8,0.00,North,353,0.0,0.0,43,0.00,,,0.00,VWS V13.01,2013-10-29 08:06:00,
2013-10-29 03:11:00,25.3,6.0,0.00,North,353,0.0,0.0,43,0.00,,,0.00,VWS V13.01,2013-10-29 08:11:00,
2013-10-29 03:16:00,25.3,6.0,0.00,North,353,0.0,0.0,43,0.00,,,0.00,VWS V13.01,2013-10-29 08:16:00,
2013-10-29 03:21:00,25.3,6.0,0.00,North,353,0.0,0.0,43,0.00,,,0.00,VWS V13.01,2013-10-29 08:21:00,
2013-10-29 03:26:00,25.3,6.0,0.00,North,353,0.0,0.0,43,0.00,,,0.00,VWS V13.01,2013-10-29 08:26:00,
2013-10-29 03:31:00,25.3,6.0,0.00,North,353,2.2,2.2,43,0.00,,,0.00,VWS V13.01,2013-10-29 08:31:00,
2013-10-29 03:36:00,25.3,6.0,0.00,North,353,0.0,0.0,43,0.00,,,0.00,VWS V13.01,2013-10-29 08:36:00,
2013-10-29 03:41:00,25.3,6.0,0.00,North,353,0.0,0.0,43,0.00,,,0.00,VWS V13.01,2013-10-29 08:41:00,
2013-10-29 03:46:00,25.3,6.0,0.00,North,353,3.1,3.1,43,0.00,,,0.00,VWS V13.01,2013-10-29 08:46:00,
2013-10-29 03:51:00,25.3,6.5,0.00,North,353,2.7,3.1,44,0.00,,,0.00,VWS V13.01,2013-10-29 08:51:00,
2013-10-29 03:56:00,25.3,6.5,0.00,North,349,2.7,3.6,44,0.00,,,0.00,VWS V13.01,2013-10-29 08:56:00,
2013-10-29 04:01:00,25.3,6.5,0.00,NNW,339,0.0,0.0,44,0.00,,,0.00,VWS V13.01,2013-10-29 09:01:00,
2013-10-29 04:06:00,25.5,6.7,0.00,NNW,339,0.0,0.0,44,0.00,,,0.00,VWS V13.01,2013-10-29 09:06:00,
2013-10-29 04:11:00,25.7,6.8,0.00,NNW,339,0.0,0.0,44,0.00,,,0.00,VWS V13.01,2013-10-29 09:11:00,
2013-10-29 04:16:00,25.7,6.8,0.00,NNW,344,0.0,0.0,44,0.00,,,0.00,VWS V13.01,2013-10-29 09:16:00,
2013-10-29 04:21:00,25.9,7.0,0.00,NNW,344,0.0,0.0,44,0.00,,,0.00,VWS V13.01,2013-10-29 09:21:00,
2013-10-29 04:26:00,25.9,7.0,0.00,NNW,344,0.0,0.0,44,0.00,,,0.00,VWS V13.01,2013-10-29 09:26:00,
2013-10-29 04:31:00,26.1,7.2,0.00,NNW,344,0.0,0.0,44,0.00,,,0.00,VWS V13.01,2013-10-29 09:31:00,
2013-10-29 04:36:00,26.1,7.2,0.00,NNW,344,0.0,0.0,44,0.00,,,0.00,VWS V13.01,2013-10-29 09:36:00,
2013-10-29 04:41:00,26.1,7.2,0.00,NNW,344,0.0,0.0,44,0.00,,,0.00,VWS V13.01,2013-10-29 09:41:00,
2013-10-29 04:46:00,26.1,7.2,0.00,NNW,344,0.0,0.0,44,0.00,,,0.00,VWS V13.01,2013-10-29 09:46:00,
2013-10-29 04:51:00,26.2,7.3,0.00,NNW,344,0.0,0.0,44,0.00,,,0.00,VWS V13.01,2013-10-29 09:51:00,
2013-10-29 04:56:00,26.4,7.5,0.00,NNW,344,0.0,0.0,44,0.00,,,0.00,VWS V13.01,2013-10-29 09:56:00,
2013-10-29 05:01:00,26.4,7.5,0.00,NNW,344,0.0,0.0,44,0.00,,,0.00,VWS V13.01,2013-10-29 10:01:00,
2013-10-29 05:06:00,26.4,7.5,0.00,NNW,345,0.0,0.0,44,0.00,,,0.00,VWS V13.01,2013-10-29 10:06:00,
2013-10-29 05:11:00,26.4,7.5,0.00,NNW,346,0.0,0.0,44,0.00,,,0.00,VWS V13.01,2013-10-29 10:11:00,
2013-10-29 05:16:00,26.4,7.5,0.00,NNW,346,0.0,0.0,44,0.00,,,0.00,VWS V13.01,2013-10-29 10:16:00,
2013-10-29 05:21:00,26.6,7.6,0.00,NNW,346,0.0,0.0,44,0.00,,,0.00,VWS V13.01,2013-10-29 10:21:00,
2013-10-29 05:26:00,26.6,7.6,0.00,NNW,346,0.0,0.0,44,0.00,,,0.00,VWS V13.01,2013-10-29 10:26:00,
2013-10-29 05:31:00,26.8,7.3,0.00,North,349,0.0,0.0,43,0.00,,,0.00,VWS V13.01,2013-10-29 10:31:00,
2013-10-29 05:36:00,27.0,8.0,0.00,North,353,0.0,0.0,44,0.00,,,0.00,VWS V13.01,2013-10-29 10:36:00,
2013-10-29 05:41:00,27.1,8.1,0.00,North,353,0.0,0.0,44,0.00,,,0.00,VWS V13.01,2013-10-29 10:41:00,
2013-10-29 05:46:00,27.3,8.3,0.00,North,353,0.0,0.0,44,0.00,,,0.00,VWS V13.01,2013-10-29 10:46:00,
2013-10-29 05:51:00,27.5,8.5,0.00,East,98,2.7,2.7,44,0.00,,,0.00,VWS V13.01,2013-10-29 10:51:00,
2013-10-29 05:56:00,27.7,8.6,0.00,East,97,0.0,0.0,44,0.00,,,0.00,VWS V13.01,2013-10-29 10:56:00,
2013-10-29 06:01:00,27.9,8.8,0.00,ENE,77,0.0,0.0,44,0.00,,,0.00,VWS V13.01,2013-10-29 11:01:00,
2013-10-29 06:06:00,27.9,8.3,0.00,ENE,77,0.0,0.0,43,0.00,,,0.00,VWS V13.01,2013-10-29 11:06:00,
2013-10-29 06:11:00,27.9,8.3,0.00,East,92,0.0,0.0,43,0.00,,,0.00,VWS V13.01,2013-10-29 11:11:00,
2013-10-29 06:16:00,27.9,8.3,0.00,ENE,77,0.0,0.0,43,0.00,,,0.00,VWS V13.01,2013-10-29 11:16:00,
2013-10-29 06:21:00,28.0,8.4,0.00,ENE,65,0.0,0.0,43,0.00,,,0.00,VWS V13.01,2013-10-29 11:21:00,
2013-10-29 06:26:00,28.0,8.4,0.00,ENE,77,0.0,0.0,43,0.00,,,0.00,VWS V13.01,2013-10-29 11:26:00,
2013-10-29 06:31:00,28.2,8.6,0.00,ENE,71,0.0,0.0,43,0.00,,,0.00,VWS V13.01,2013-10-29 11:31:00,
2013-10-29 06:36:00,28.2,8.6,0.00,ENE,71,0.0,0.0,43,0.00,,,0.00,VWS V13.01,2013-10-29 11:36:00,
2013-10-29 06:41:00,28.2,8.6,0.00,ESE,105,2.7,3.1,43,0.00,,,0.00,VWS V13.01,2013-10-29 11:41:00,
2013-10-29 06:46:00,28.2,8.6,0.00,ENE,71,0.0,0.0,43,0.00,,,0.00,VWS V13.01,2013-10-29 11:46:00,
2013-10-29 06:51:00,28.2,8.6,0.00,ENE,71,0.0,0.0,43,0.00,,,0.00,VWS V13.01,2013-10-29 11:51:00,
2013-10-29 06:56:00,28.2,8.6,0.00,ENE,67,0.0,0.0,43,0.00,,,0.00,VWS V13.01,2013-10-29 11:56:00,
2013-10-29 07:01:00,28.4,8.8,0.00,East,87,0.0,0.0,43,0.00,,,0.00,VWS V13.01,2013-10-29 12:01:00,
2013-10-29 07:06:00,28.4,8.8,0.00,East,80,0.0,0.0,43,0.00,,,0.00,VWS V13.01,2013-10-29 12:06:00,
2013-10-29 07:11:00,28.4,8.8,0.00,East,80,0.0,0.0,43,0.00,,,0.00,VWS V13.01,2013-10-29 12:11:00,
2013-10-29 07:16:00,28.4,8.8,0.00,East,99,0.0,0.0,43,0.00,,,0.00,VWS V13.01,2013-10-29 12:16:00,
2013-10-29 07:21:00,28.6,8.4,0.00,East,80,0.0,0.0,42,0.00,,,0.00,VWS V13.01,2013-10-29 12:21:00,
2013-10-29 07:26:00,28.6,8.4,0.00,ENE,71,0.0,0.0,42,0.00,,,0.00,VWS V13.01,2013-10-29 12:26:00,
2013-10-29 07:31:00,28.6,8.4,0.00,NE,48,0.0,2.7,42,0.00,,,0.00,VWS V13.01,2013-10-29 12:31:00,
2013-10-29 07:36:00,28.6,8.4,0.00,ENE,60,2.7,2.7,42,0.00,,,0.00,VWS V13.01,2013-10-29 12:36:00,
2013-10-29 07:41:00,28.6,8.4,0.00,East,96,2.2,2.2,42,0.00,,,0.00,VWS V13.01,2013-10-29 12:41:00,
2013-10-29 07:46:00,28.6,8.4,0.00,ESE,103,2.7,2.7,42,0.00,,,0.00,VWS V13.01,2013-10-29 12:46:00,
2013-10-29 07:51:00,28.8,9.1,0.00,ENE,60,3.6,3.6,43,0.00,,,0.00,VWS V13.01,2013-10-29 12:51:00,
2013-10-29 07:56:00,28.9,9.3,0.00,NE,49,2.2,3.6,43,0.00,,,0.00,VWS V13.01,2013-10-29 12:56:00,
2013-10-29 08:01:00,28.9,9.3,0.00,East,93,2.2,2.2,43,0.00,,,0.00,VWS V13.01,2013-10-29 13:01:00,
2013-10-29 08:06:00,29.1,9.4,0.00,NE,38,2.7,2.7,43,0.00,,,0.00,VWS V13.01,2013-10-29 13:06:00,
2013-10-29 08:11:00,29.3,9.6,0.00,ESE,116,3.6,3.6,43,0.00,,,0.00,VWS V13.01,2013-10-29 13:11:00,
2013-10-29 08:16:00,29.5,10.3,0.00,ESE,102,4.0,5.4,44,0.00,,,0.00,VWS V13.01,2013-10-29 13:16:00,
2013-10-29 08:21:00,29.8,10.1,0.00,ESE,123,2.7,3.6,43,0.00,,,0.00,VWS V13.01,2013-10-29 13:21:00,
2013-10-29 08:26:00,29.8,10.1,0.00,East,95,0.0,0.0,43,0.00,,,0.00,VWS V13.01,2013-10-29 13:26:00,
2013-10-29 08:31:00,29.8,10.1,0.00,NE,55,0.0,0.0,43,0.00,,,0.00,VWS V13.01,2013-10-29 13:31:00,
2013-10-29 08:36:00,29.7,9.9,0.00,ENE,61,0.0,2.2,43,0.00,,,0.00,VWS V13.01,2013-10-29 13:36:00,
2013-10-29 08:41:00,29.7,9.9,0.00,NE,55,2.7,2.7,43,0.00,,,0.00,VWS V13.01,2013-10-29 13:41:00,
2013-10-29 08:46:00,29.8,10.1,0.00,ESE,102,2.7,3.6,43,0.00,,,0.00,VWS V13.01,2013-10-29 13:46:00,
2013-10-29 08:51:00,29.8,10.1,0.00,ENE,59,3.1,3.1,43,0.00,,,0.00,VWS V13.01,2013-10-29 13:51:00,
2013-10-29 08:56:00,30.0,10.2,0.00,East,97,2.2,2.7,43,0.00,,,0.00,VWS V13.01,2013-10-29 13:56:00,
2013-10-29 09:01:00,30.2,10.4,0.00,ENE,68,0.0,2.2,43,0.00,,,0.00,VWS V13.01,2013-10-29 14:01:00,
2013-10-29 09:06:00,30.2,10.4,0.00,East,83,0.0,0.0,43,0.00,,,0.00,VWS V13.01,2013-10-29 14:06:00,
2013-10-29 09:11:00,30.4,10.6,0.00,East,99,0.0,0.0,43,0.00,,,0.00,VWS V13.01,2013-10-29 14:11:00,
2013-10-29 09:16:00,30.4,10.6,0.00,ENE,69,0.0,0.0,43,0.00,,,0.00,VWS V13.01,2013-10-29 14:16:00,
2013-10-29 09:21:00,30.6,10.7,0.00,East,88,0.0,0.0,43,0.00,,,0.00,VWS V13.01,2013-10-29 14:21:00,
2013-10-29 09:26:00,30.9,11.1,0.00,East,81,2.7,2.7,43,0.00,,,0.00,VWS V13.01,2013-10-29 14:26:00,
2013-10-29 09:31:00,31.1,11.8,0.00,NE,47,3.1,3.1,44,0.00,,,0.00,VWS V13.01,2013-10-29 14:31:00,
2013-10-29 09:36:00,31.5,12.1,0.00,ESE,109,4.9,4.9,44,0.00,,,0.00,VWS V13.01,2013-10-29 14:36:00,
2013-10-29 09:41:00,31.8,12.4,0.00,ESE,123,5.4,5.4,44,0.00,,,0.00,VWS V13.01,2013-10-29 14:41:00,
2013-10-29 09:46:00,32.0,12.6,0.00,ENE,57,3.1,3.1,44,0.00,,,0.00,VWS V13.01,2013-10-29 14:46:00,
2013-10-29 09:51:00,32.2,12.7,0.00,ENE,72,2.7,2.7,44,0.00,,,0.00,VWS V13.01,2013-10-29 14:51:00,
2013-10-29 09:56:00,32.2,12.7,0.00,ESE,104,4.5,4.5,44,0.00,,,0.00,VWS V13.01,2013-10-29 14:56:00,
2013-10-29 10:01:00,32.2,12.2,0.00,ENE,60,2.7,2.7,43,0.00,,,0.00,VWS V13.01,2013-10-29 15:01:00,
2013-10-29 10:06:00,32.5,13.1,0.00,SE,124,4.0,5.8,44,0.00,,,0.00,VWS V13.01,2013-10-29 15:06:00,
2013-10-29 10:11:00,32.5,13.1,0.00,ESE,119,3.1,3.6,44,0.00,,,0.00,VWS V13.01,2013-10-29 15:11:00,
2013-10-29 10:16:00,32.7,13.2,0.00,East,99,3.1,4.9,44,0.00,,,0.00,VWS V13.01,2013-10-29 15:16:00,
2013-10-29 10:21:00,32.9,13.4,0.00,ESE,123,4.0,4.0,44,0.00,,,0.00,VWS V13.01,2013-10-29 15:21:00,
2013-10-29 10:26:00,33.1,13.6,0.00,East,83,2.2,2.2,44,0.00,,,0.00,VWS V13.01,2013-10-29 15:26:00,
2013-10-29 10:31:00,33.3,13.2,0.00,East,92,0.0,0.0,43,0.00,,,0.00,VWS V13.01,2013-10-29 15:31:00,
2013-10-29 10:36:00,33.4,13.4,0.00,ENE,75,2.7,2.7,43,0.00,,,0.00,VWS V13.01,2013-10-29 15:36:00,
2013-10-29 10:41:00,33.6,13.5,0.00,ENE,71,0.0,3.6,43,0.00,,,0.00,VWS V13.01,2013-10-29 15:41:00,
2013-10-29 10:46:00,33.8,13.1,0.00,ENE,74,2.2,2.7,42,0.00,,,0.00,VWS V13.01,2013-10-29 15:46:00,
2013-10-29 10:51:00,34.0,13.3,0.00,ENE,76,2.7,3.1,42,0.00,,,0.00,VWS V13.01,2013-10-29 15:51:00,
2013-10-29 10:56:00,34.2,13.5,0.00,ESE,123,5.4,5.4,42,0.00,,,0.00,VWS V13.01,2013-10-29 15:56:00,
2013-10-29 11:01:00,34.3,14.2,0.00,East,79,4.0,4.0,43,0.00,,,0.00,VWS V13.01,2013-10-29 16:01:00,
2013-10-29 11:06:00,34.5,14.3,0.00,ESE,121,3.1,5.4,43,0.00,,,0.00,VWS V13.01,2013-10-29 16:06:00,
2013-10-29 11:11:00,34.7,14.0,0.00,ESE,114,5.4,5.8,42,0.00,,,0.00,VWS V13.01,2013-10-29 16:11:00,
2013-10-29 11:16:00,34.5,13.8,0.00,East,98,5.8,5.8,42,0.00,,,0.00,VWS V13.01,2013-10-29 16:16:00,
2013-10-29 11:21:00,34.7,14.5,0.00,NE,34,2.2,4.9,43,0.00,,,0.00,VWS V13.01,2013-10-29 16:21:00,
2013-10-29 11:26:00,34.9,14.7,0.00,East,95,7.6,8.1,43,0.00,,,0.00,VWS V13.01,2013-10-29 16:26:00,
2013-10-29 11:31:00,34.9,14.1,0.00,ESE,103,6.3,7.6,42,0.00,,,0.00,VWS V13.01,2013-10-29 16:31:00,
2013-10-29 11:36:00,34.9,14.1,0.00,ESE,119,5.8,5.8,42,0.00,,,0.00,VWS V13.01,2013-10-29 16:36:00,
2013-10-29 11:41:00,35.1,14.3,0.00,East,101,3.1,3.6,42,0.00,,,0.00,VWS V13.01,2013-10-29 16:41:00,
2013-10-29 11:46:00,35.2,14.5,0.00,East,97,4.0,4.0,42,0.00,,,0.00,VWS V13.01,2013-10-29 16:46:00,
2013-10-29 11:51:00,35.4,14.6,0.00,ESE,103,5.4,5.4,42,0.00,,,0.00,VWS V13.01,2013-10-29 16:51:00,
2013-10-29 11:56:00,35.6,14.2,0.00,ENE,78,3.1,5.8,41,0.00,,,0.00,VWS V13.01,2013-10-29 16:56:00,
2013-10-29 12:01:00,35.8,14.4,0.00,East,100,6.3,6.3,41,0.00,,,0.00,VWS V13.01,2013-10-29 17:01:00,
2013-10-29 12:06:00,35.8,14.4,0.00,ESE,102,6.7,6.7,41,0.00,,,0.00,VWS V13.01,2013-10-29 17:06:00,
2013-10-29 12:11:00,35.8,14.4,0.00,ESE,121,5.8,5.8,41,0.00,,,0.00,VWS V13.01,2013-10-29 17:11:00,
2013-10-29 12:16:00,36.0,15.1,0.00,ESE,105,4.0,5.4,42,0.00,,,0.00,VWS V13.01,2013-10-29 17:16:00,
2013-10-29 12:21:00,36.1,14.7,0.00,ESE,107,4.5,4.9,41,0.00,,,0.00,VWS V13.01,2013-10-29 17:21:00,
2013-10-29 12:26:00,36.1,14.7,0.00,SE,129,2.7,4.9,41,0.00,,,0.00,VWS V13.01,2013-10-29 17:26:00,
2013-10-29 12:31:00,36.1,14.7,0.00,ENE,65,0.0,2.7,41,0.00,,,0.00,VWS V13.01,2013-10-29 17:31:00,
2013-10-29 12:36:00,36.1,14.7,0.00,NE,52,0.0,0.0,41,0.00,,,0.00,VWS V13.01,2013-10-29 17:36:00,
2013-10-29 12:41:00,36.1,14.7,0.00,ESE,103,3.6,4.9,41,0.00,,,0.00,VWS V13.01,2013-10-29 17:41:00,
2013-10-29 12:46:00,36.3,14.9,0.00,NE,49,2.7,4.0,41,0.00,,,0.00,VWS V13.01,2013-10-29 17:46:00,
2013-10-29 12:51:00,36.3,14.9,0.00,ENE,64,2.2,2.7,41,0.00,,,0.00,VWS V13.01,2013-10-29 17:51:00,
2013-10-29 12:56:00,36.3,14.9,0.00,ENE,61,0.0,3.1,41,0.00,,,0.00,VWS V13.01,2013-10-29 17:56:00,
2013-10-29 13:01:00,36.3,14.9,0.00,NE,47,2.7,2.7,41,0.00,,,0.00,VWS V13.01,2013-10-29 18:01:00,
2013-10-29 13:06:00,36.3,14.9,0.00,ENE,66,2.2,2.7,41,0.00,,,0.00,VWS V13.01,2013-10-29 18:06:00,
2013-10-29 13:11:00,36.1,14.7,0.00,North,1,2.2,2.7,41,0.00,,,0.00,VWS V13.01,2013-10-29 18:11:00,
2013-10-29 13:16:00,36.1,14.7,0.00,ESE,120,3.1,3.6,41,0.00,,,0.00,VWS V13.01,2013-10-29 18:16:00,
2013-10-29 13:21:00,36.3,14.9,0.00,ENE,62,4.9,4.9,41,0.00,,,0.00,VWS V13.01,2013-10-29 18:21:00,
2013-10-29 13:26:00,36.3,14.9,0.00,East,99,0.0,3.6,41,0.00,,,0.00,VWS V13.01,2013-10-29 18:26:00,
2013-10-29 13:31:00,36.5,15.1,0.00,East,98,5.4,5.4,41,0.00,,,0.00,VWS V13.01,2013-10-29 18:31:00,
2013-10-29 13:36:00,36.5,15.6,0.00,NE,47,6.3,6.3,42,0.00,,,0.00,VWS V13.01,2013-10-29 18:36:00,
2013-10-29 13:41:00,36.5,15.6,0.00,ENE,60,3.1,3.1,42,0.00,,,0.00,VWS V13.01,2013-10-29 18:41:00,
2013-10-29 13:46:00,36.5,15.6,0.00,NE,48,3.1,3.6,42,0.00,,,0.00,VWS V13.01,2013-10-29 18:46:00,
2013-10-29 13:51:00,36.3,15.4,0.00,East,101,3.1,3.1,42,0.00,,,0.00,VWS V13.01,2013-10-29 18:51:00,
2013-10-29 13:56:00,36.3,15.4,0.00,ESE,114,2.7,3.6,42,0.00,,,0.00,VWS V13.01,2013-10-29 18:56:00,
2013-10-29 14:01:00,36.3,15.4,0.00,NE,47,2.7,4.5,42,0.00,,,0.00,VWS V13.01,2013-10-29 19:01:00,
2013-10-29 14:06:00,36.5,16.1,0.00,ESE,106,5.4,5.4,43,0.00,,,0.00,VWS V13.01,2013-10-29 19:06:00,
2013-10-29 14:11:00,36.5,15.6,0.00,East,97,5.4,6.3,42,0.00,,,0.00,VWS V13.01,2013-10-29 19:11:00,
2013-10-29 14:16:00,36.7,16.3,0.00,East,98,6.3,6.3,43,0.00,,,0.00,VWS V13.01,2013-10-29 19:16:00,
2013-10-29 14:21:00,36.9,16.5,0.00,East,87,3.1,4.9,43,0.00,,,0.00,VWS V13.01,2013-10-29 19:21:00,
2013-10-29 14:26:00,36.9,16.5,0.00,NE,54,2.7,4.9,43,0.00,,,0.00,VWS V13.01,2013-10-29 19:26:00,
2013-10-29 14:31:00,37.0,17.2,0.00,ENE,62,2.7,4.9,44,0.00,,,0.00,VWS V13.01,2013-10-29 19:31:00,
2013-10-29 14:36:00,37.0,16.6,0.00,NE,51,3.1,3.6,43,0.00,,,0.00,VWS V13.01,2013-10-29 19:36:00,
2013-10-29 14:41:00,37.2,16.8,0.00,East,89,3.6,3.6,43,0.00,,,0.00,VWS V13.01,2013-10-29 19:41:00,
2013-10-29 14:46:00,37.2,16.8,0.00,ESE,104,4.9,4.9,43,0.00,,,0.00,VWS V13.01,2013-10-29 19:46:00,
2013-10-29 14:51:00,37.2,16.8,0.00,NE,39,0.0,3.6,43,0.00,,,0.00,VWS V13.01,2013-10-29 19:51:00,
2013-10-29 14:56:00,37.2,16.3,0.00,East,79,3.1,3.1,42,0.00,,,0.00,VWS V13.01,2013-10-29 19:56:00,
2013-10-29 15:01:00,37.4,16.4,0.00,East,87,4.0,5.8,42,0.00,,,0.00,VWS V13.01,2013-10-29 20:01:00,
2013-10-29 15:06:00,37.4,17.0,0.00,East,97,2.7,3.6,43,0.00,,,0.00,VWS V13.01,2013-10-29 20:06:00,
2013-10-29 15:11:00,37.4,16.4,0.00,ENE,63,3.1,3.6,42,0.00,,,0.00,VWS V13.01,2013-10-29 20:11:00,
2013-10-29 15:16:00,37.4,16.4,0.00,NE,56,4.0,4.0,42,0.00,,,0.00,VWS V13.01,2013-10-29 20:16:00,
2013-10-29 15:21:00,37.6,17.1,0.00,NNE,24,2.2,3.6,43,0.00,,,0.00,VWS V13.01,2013-10-29 20:21:00,
2013-10-29 15:26:00,37.6,16.6,0.00,NE,36,0.0,0.0,42,0.00,,,0.00,VWS V13.01,2013-10-29 20:26:00,
2013-10-29 15:31:00,37.6,16.6,0.00,ESE,109,2.7,2.7,42,0.00,,,0.00,VWS V13.01,2013-10-29 20:31:00,
2013-10-29 15:36:00,37.6,16.6,0.00,NE,50,2.7,3.6,42,0.00,,,0.00,VWS V13.01,2013-10-29 20:36:00,
2013-10-29 15:41:00,37.4,16.4,0.00,East,79,2.7,4.9,42,0.00,,,0.00,VWS V13.01,2013-10-29 20:41:00,
2013-10-29 15:46:00,37.4,16.4,0.00,East,94,4.0,4.0,42,0.00,,,0.00,VWS V13.01,2013-10-29 20:46:00,
2013-10-29 15:51:00,37.4,16.4,0.00,NE,56,0.0,0.0,42,0.00,,,0.00,VWS V13.01,2013-10-29 20:51:00,
2013-10-29 15:56:00,37.4,16.4,0.00,NE,40,3.6,3.6,42,0.00,,,0.00,VWS V13.01,2013-10-29 20:56:00,
2013-10-29 16:01:00,37.2,16.3,0.00,North,357,2.7,4.0,42,0.00,,,0.00,VWS V13.01,2013-10-29 21:01:00,
2013-10-29 16:06:00,37.2,16.3,0.00,NE,52,4.0,4.9,42,0.00,,,0.00,VWS V13.01,2013-10-29 21:06:00,
2013-10-29 16:11:00,37.2,16.8,0.00,ENE,70,0.0,0.0,43,0.00,,,0.00,VWS V13.01,2013-10-29 21:11:00,
2013-10-29 16:16:00,37.4,16.4,0.00,NNE,19,3.1,4.9,42,0.00,,,0.00,VWS V13.01,2013-10-29 21:16:00,
2013-10-29 16:21:00,37.4,16.4,0.00,East,92,3.1,3.6,42,0.00,,,0.00,VWS V13.01,2013-10-29 21:21:00,
2013-10-29 16:26:00,37.4,16.4,0.00,ESE,105,3.1,3.1,42,0.00,,,0.00,VWS V13.01,2013-10-29 21:26:00,
2013-10-29 16:31:00,37.4,16.4,0.00,East,87,2.2,2.2,42,0.00,,,0.00,VWS V13.01,2013-10-29 21:31:00,
2013-10-29 16:36:00,37.4,17.0,0.00,ENE,74,4.0,4.0,43,0.00,,,0.00,VWS V13.01,2013-10-29 21:36:00,
2013-10-29 16:41:00,37.4,17.0,0.00,East,89,3.6,4.0,43,0.00,,,0.00,VWS V13.01,2013-10-29 21:41:00,
2013-10-29 16:46:00,37.4,17.0,0.00,NNE,33,3.6,3.6,43,0.00,,,0.00,VWS V13.01,2013-10-29 21:46:00,
2013-10-29 16:51:00,37.4,17.0,0.00,East,79,2.7,2.7,43,0.00,,,0.00,VWS V13.01,2013-10-29 21:51:00,
2013-10-29 16:56:00,37.6,17.1,0.00,ENE,63,0.0,0.0,43,0.00,,,0.00,VWS V13.01,2013-10-29 21:56:00,
2013-10-29 17:01:00,37.6,17.1,0.00,East,89,2.7,4.9,43,0.00,,,0.00,VWS V13.01,2013-10-29 22:01:00,
2013-10-29 17:06:00,37.6,17.1,0.00,ENE,57,0.0,2.2,43,0.00,,,0.00,VWS V13.01,2013-10-29 22:06:00,
2013-10-29 17:11:00,37.8,17.3,0.00,ENE,67,2.7,3.6,43,0.00,,,0.00,VWS V13.01,2013-10-29 22:11:00,
2013-10-29 17:16:00,37.8,16.8,0.00,ENE,76,2.2,4.9,42,0.00,,,0.00,VWS V13.01,2013-10-29 22:16:00,
2013-10-29 17:21:00,37.9,16.9,0.00,East,81,0.0,2.2,42,0.00,,,0.00,VWS V13.01,2013-10-29 22:21:00,
2013-10-29 17:26:00,37.8,16.8,0.00,ENE,74,3.6,3.6,42,0.00,,,0.00,VWS V13.01,2013-10-29 22:26:00,
2013-10-29 17:31:00,37.8,16.8,0.00,ESE,104,4.9,6.3,42,0.00,,,0.00,VWS V13.01,2013-10-29 22:31:00,
2013-10-29 17:36:00,37.9,16.9,0.00,ESE,105,4.0,4.0,42,0.00,,,0.00,VWS V13.01,2013-10-29 22:36:00,
2013-10-29 17:41:00,37.9,16.9,0.00,ENE,76,2.2,3.6,42,0.00,,,0.00,VWS V13.01,2013-10-29 22:41:00,
2013-10-29 17:46:00,37.8,16.2,0.00,ESE,113,3.1,5.8,41,0.00,,,0.00,VWS V13.01,2013-10-29 22:46:00,
2013-10-29 17:51:00,37.8,16.2,0.00,NE,49,0.0,3.1,41,0.00,,,0.00,VWS V13.01,2013-10-29 22:51:00,
2013-10-29 17:56:00,37.8,16.2,0.00,ENE,70,0.0,0.0,41,0.00,,,0.00,VWS V13.01,2013-10-29 22:56:00,
2013-10-29 18:01:00,37.8,16.2,0.00,ESE,108,4.0,4.0,41,0.00,,,0.00,VWS V13.01,2013-10-29 23:01:00,
2013-10-29 18:06:00,37.9,16.9,0.00,East,98,4.0,4.9,42,0.00,,,0.00,VWS V13.01,2013-10-29 23:06:00,
2013-10-29 18:11:00,37.9,16.9,0.00,ESE,108,5.4,6.7,42,0.00,,,0.00,VWS V13.01,2013-10-29 23:11:00,
2013-10-29 18:16:00,38.1,17.1,0.00,ESE,103,6.3,6.3,42,0.00,,,0.00,VWS V13.01,2013-10-29 23:16:00,
2013-10-29 18:21:00,38.1,17.1,0.00,ESE,104,6.3,6.3,42,0.00,,,0.00,VWS V13.01,2013-10-29 23:21:00,
2013-10-29 18:26:00,38.1,17.1,0.00,East,99,5.8,5.8,42,0.00,,,0.00,VWS V13.01,2013-10-29 23:26:00,
2013-10-29 18:31:00,38.1,17.1,0.00,East,84,2.7,2.7,42,0.00,,,0.00,VWS V13.01,2013-10-29 23:31:00,
2013-10-29 18:36:00,38.1,17.1,0.00,East,101,2.7,4.5,42,0.00,,,0.00,VWS V13.01,2013-10-29 23:36:00,
2013-10-29 18:41:00,38.1,17.1,0.00,East,91,0.0,3.6,42,0.00,,,0.00,VWS V13.01,2013-10-29 23:41:00,
2013-10-29 18:46:00,38.1,17.6,0.00,East,92,3.6,4.0,43,0.00,,,0.00,VWS V13.01,2013-10-29 23:46:00,
2013-10-29 18:51:00,38.1,17.6,0.00,ESE,110,3.6,4.0,43,0.00,,,0.00,VWS V13.01,2013-10-29 23:51:00,
2013-10-29 18:56:00,38.1,17.6,0.00,ESE,102,0.0,3.6,43,0.00,,,0.00,VWS V13.01,2013-10-29 23:56:00,
2013-10-29 19:01:00,38.1,17.6,0.00,ENE,70,2.7,2.7,43,0.00,,,0.00,VWS V13.01,2013-10-30 00:01:00,
2013-10-29 19:06:00,38.1,17.1,0.00,SE,127,3.6,3.6,42,0.00,,,0.00,VWS V13.01,2013-10-30 00:06:00,
2013-10-29 19:11:00,38.1,17.6,0.00,ESE,106,3.1,4.0,43,0.00,,,0.00,VWS V13.01,2013-10-30 00:11:00,
2013-10-29 19:16:00,38.1,17.6,0.00,ESE,115,4.0,4.0,43,0.00,,,0.00,VWS V13.01,2013-10-30 00:16:00,
2013-10-29 19:21:00,38.1,17.6,0.00,East,101,3.6,3.6,43,0.00,,,0.00,VWS V13.01,2013-10-30 00:21:00,
2013-10-29 19:26:00,37.9,17.5,0.00,East,92,0.0,0.0,43,0.00,,,0.00,VWS V13.01,2013-10-30 00:26:00,
2013-10-29 19:31:00,37.9,17.5,0.00,ESE,105,3.6,3.6,43,0.00,,,0.00,VWS V13.01,2013-10-30 00:31:00,
2013-10-29 19:36:00,37.9,17.5,0.00,ESE,102,4.0,4.5,43,0.00,,,0.00,VWS V13.01,2013-10-30 00:36:00,
2013-10-29 19:41:00,37.9,17.5,0.00,ESE,110,0.0,2.2,43,0.00,,,0.00,VWS V13.01,2013-10-30 00:41:00,
2013-10-29 19:46:00,37.9,17.5,0.00,East,101,2.2,3.6,43,0.00,,,0.00,VWS V13.01,2013-10-30 00:46:00,
2013-10-29 19:51:00,37.9,18.0,0.00,ESE,108,3.1,3.6,44,0.00,,,0.00,VWS V13.01,2013-10-30 00:51:00,
2013-10-29 19:56:00,37.9,18.0,0.00,ESE,107,3.6,4.9,44,0.00,,,0.00,VWS V13.01,2013-10-30 00:56:00,
2013-10-29 20:01:00,38.1,18.1,0.00,East,101,0.0,2.2,44,0.00,,,0.00,VWS V13.01,2013-10-30 01:01:00,
2013-10-29 20:06:00,37.9,18.0,0.00,NNE,15,0.0,2.2,44,0.00,,,0.00,VWS V13.01,2013-10-30 01:06:00,
2013-10-29 20:11:00,37.8,17.3,0.00,North,11,3.1,3.1,43,0.00,,,0.00,VWS V13.01,2013-10-30 01:11:00,
2013-10-29 20:16:00,37.8,17.3,0.00,NNE,33,2.7,3.1,43,0.00,,,0.00,VWS V13.01,2013-10-30 01:16:00,
2013-10-29 20:21:00,37.8,17.3,0.00,East,92,3.1,3.1,43,0.00,,,0.00,VWS V13.01,2013-10-30 01:21:00,
2013-10-29 20:26:00,37.8,17.3,0.00,NE,46,0.0,2.7,43,0.00,,,0.00,VWS V13.01,2013-10-30 01:26:00,
2013-10-29 20:31:00,37.8,17.3,0.00,NNE,29,0.0,0.0,43,0.00,,,0.00,VWS V13.01,2013-10-30 01:31:00,
2013-10-29 20:36:00,37.8,17.3,0.00,NNE,32,2.2,2.2,43,0.00,,,0.00,VWS V13.01,2013-10-30 01:36:00,
2013-10-29 20:41:00,37.8,17.3,0.00,ESE,105,3.1,3.1,43,0.00,,,0.00,VWS V13.01,2013-10-30 01:41:00,
2013-10-29 20:46:00,37.8,17.8,0.00,ESE,108,2.2,2.7,44,0.00,,,0.00,VWS V13.01,2013-10-30 01:46:00,
2013-10-29 20:51:00,37.8,17.8,0.00,East,100,3.6,3.6,44,0.00,,,0.00,VWS V13.01,2013-10-30 01:51:00,
2013-10-29 20:56:00,37.8,17.8,0.00,East,98,0.0,0.0,44,0.00,,,0.00,VWS V13.01,2013-10-30 01:56:00,
2013-10-29 21:01:00,37.8,17.8,0.00,NE,50,0.0,0.0,44,0.00,,,0.00,VWS V13.01,2013-10-30 02:01:00,
2013-10-29 21:06:00,37.8,17.8,0.00,North,7,0.0,0.0,44,0.00,,,0.00,VWS V13.01,2013-10-30 02:06:00,
2013-10-29 21:11:00,37.8,17.8,0.00,NNE,33,0.0,0.0,44,0.00,,,0.00,VWS V13.01,2013-10-30 02:11:00,
2013-10-29 21:16:00,37.8,17.8,0.00,NE,45,0.0,0.0,44,0.00,,,0.00,VWS V13.01,2013-10-30 02:16:00,
2013-10-29 21:21:00,37.8,17.8,0.00,ESE,114,2.7,3.1,44,0.00,,,0.00,VWS V13.01,2013-10-30 02:21:00,
2013-10-29 21:26:00,37.8,17.8,0.00,ESE,113,2.7,2.7,44,0.00,,,0.00,VWS V13.01,2013-10-30 02:26:00,
2013-10-29 21:31:00,37.9,18.5,0.00,East,86,2.2,3.6,45,0.00,,,0.00,VWS V13.01,2013-10-30 02:31:00,
2013-10-29 21:36:00,37.9,18.5,0.00,ENE,66,2.7,2.7,45,0.00,,,0.00,VWS V13.01,2013-10-30 02:36:00,
2013-10-29 21:41:00,37.9,19.0,0.00,ESE,108,4.0,4.0,46,0.00,,,0.00,VWS V13.01,2013-10-30 02:41:00,
2013-10-29 21:46:00,37.9,19.0,0.00,East,92,0.0,2.7,46,0.00,,,0.00,VWS V13.01,2013-10-30 02:46:00,
2013-10-29 21:51:00,37.9,19.0,0.00,ESE,110,2.7,3.1,46,0.00,,,0.00,VWS V13.01,2013-10-30 02:51:00,
2013-10-29 21:56:00,38.1,19.7,0.00,ENE,74,0.0,2.2,47,0.00,,,0.00,VWS V13.01,2013-10-30 02:56:00,
2013-10-29 22:01:00,38.1,19.2,0.00,ENE,61,0.0,0.0,46,0.00,,,0.00,VWS V13.01,2013-10-30 03:01:00,
2013-10-29 22:06:00,38.1,19.2,0.00,NE,42,0.0,0.0,46,0.00,,,0.00,VWS V13.01,2013-10-30 03:06:00,
2013-10-29 22:11:00,37.9,19.0,0.00,NE,36,0.0,0.0,46,0.00,,,0.00,VWS V13.01,2013-10-30 03:11:00,
2013-10-29 22:16:00,37.9,19.0,0.00,NE,36,0.0,0.0,46,0.00,,,0.00,VWS V13.01,2013-10-30 03:16:00,
2013-10-29 22:21:00,37.9,19.0,0.00,NE,36,0.0,0.0,46,0.00,,,0.00,VWS V13.01,2013-10-30 03:21:00,
2013-10-29 22:26:00,37.9,19.0,0.00,NE,36,0.0,0.0,46,0.00,,,0.00,VWS V13.01,2013-10-30 03:26:00,
2013-10-29 22:31:00,38.1,19.2,0.00,NE,42,0.0,0.0,46,0.00,,,0.00,VWS V13.01,2013-10-30 03:31:00,
2013-10-29 22:36:00,38.1,19.2,0.00,ENE,57,0.0,4.0,46,0.00,,,0.00,VWS V13.01,2013-10-30 03:36:00,
2013-10-29 22:41:00,38.1,19.2,0.00,NE,48,0.0,0.0,46,0.00,,,0.00,VWS V13.01,2013-10-30 03:41:00,
2013-10-29 22:46:00,38.3,19.9,0.00,ENE,59,0.0,0.0,47,0.00,,,0.00,VWS V13.01,2013-10-30 03:46:00,
2013-10-29 22:51:00,38.3,19.9,0.00,NE,49,0.0,0.0,47,0.00,,,0.00,VWS V13.01,2013-10-30 03:51:00,
2013-10-29 22:56:00,38.3,19.9,0.00,NE,49,0.0,0.0,47,0.00,,,0.00,VWS V13.01,2013-10-30 03:56:00,
2013-10-29 23:01:00,38.5,20.0,0.00,North,357,0.0,0.0,47,0.00,,,0.00,VWS V13.01,2013-10-30 04:01:00,
2013-10-29 23:06:00,38.5,20.0,0.00,North,5,0.0,0.0,47,0.00,,,0.00,VWS V13.01,2013-10-30 04:06:00,
2013-10-29 23:11:00,38.5,20.0,0.00,North,6,0.0,0.0,47,0.00,,,0.00,VWS V13.01,2013-10-30 04:11:00,
2013-10-29 23:16:00,38.5,20.5,0.00,NNE,27,2.2,2.2,48,0.00,,,0.00,VWS V13.01,2013-10-30 04:16:00,
2013-10-29 23:21:00,38.5,20.5,0.00,North,9,0.0,0.0,48,0.00,,,0.00,VWS V13.01,2013-10-30 04:21:00,
2013-10-29 23:26:00,38.7,20.7,0.00,ESE,108,0.0,0.0,48,0.00,,,0.00,VWS V13.01,2013-10-30 04:26:00,
2013-10-29 23:31:00,38.7,21.2,0.00,ESE,105,2.7,2.7,49,0.00,,,0.00,VWS V13.01,2013-10-30 04:31:00,
2013-10-29 23:36:00,38.8,21.3,0.00,ESE,105,0.0,0.0,49,0.00,,,0.00,VWS V13.01,2013-10-30 04:36:00,
2013-10-29 23:41:00,38.8,21.3,0.00,ENE,57,0.0,0.0,49,0.00,,,0.00,VWS V13.01,2013-10-30 04:41:00,
2013-10-29 23:46:00,38.8,21.3,0.00,North,0,0.0,0.0,49,0.00,,,0.00,VWS V13.01,2013-10-30 04:46:00,
2013-10-29 23:51:00,38.8,21.3,0.00,North,0,0.0,0.0,49,0.00,,,0.00,VWS V13.01,2013-10-30 04:51:00,
2013-10-29 23:56:00,38.8,21.3,0.00,North,1,0.0,0.0,49,0.00,,,0.00,VWS V13.01,2013-10-30 04:56:00,